Wind_Speed
2 2 3 3 2 2 3 3 4 5 5 5 5 5 5 5 5 5 5 6 6 6 6 6 6 6 7 7 7 7 7 7 7 7 8 8 9 8 8 8 8 8 8 8 8 8 8 7 8
2 3 2 2 2 2 3 3 4 4 4 5 5 5 5 5 5 5 5 6 6 6 6 6 7 7 7 7 7 7 8 8 7 7 8 8 9 9 9 8 8 8 8 8 8 8 8 8 8
2 2 3 3 2 3 3 3 3 4 4 4 5 5 5 5 5 5 6 6 6 6 6 7 7 7 8 8 8 8 8 8 8 8 8 9 9 9 9 9 9 9 9 9 9 9 9 8 8
3 3 3 3 3 3 3 3 3 4 4 4 4 5 5 5 6 6 6 6 7 7 7 8 7 8 8 8 7 7 8 8 8 8 8 9 9 10 9 9 9 9 9 9 9 8 9 8 8
3 4 4 4 4 3 3 3 4 4 4 5 5 5 5 6 6 6 6 6 7 7 8 8 8 8 8 8 7 8 8 8 9 8 8 9 9 10 9 9 9 9 8 8 8 8 8 8 8
3 4 4 4 4 3 3 4 4 5 5 5 5 5 6 6 6 6 6 7 7 8 8 8 8 8 8 8 7 7 7 8 8 8 8 8 8 9 9 9 9 8 8 8 8 8 8 8 8
5 4 5 4 4 4 3 4 4 4 4 5 6 6 6 7 7 6 6 7 8 8 8 8 7 7 7 7 7 7 7 8 8 8 8 8 8 9 9 9 9 9 9 9 9 8 9 9 9
4 4 4 4 4 4 4 4 5 5 5 5 6 6 7 7 7 7 7 7 8 8 8 7 7 7 7 7 7 8 7 8 8 8 8 8 9 9 8 8 8 9 9 9 9 9 9 9 9
5 5 4 4 4 4 5 5 5 5 5 6 6 7 7 7 8 8 8 8 9 8 8 8 7 8 8 8 8 8 8 8 8 8 8 8 9 9 8 8 8 9 9 9 9 9 9 9 9
6 5 5 5 5 5 5 5 5 6 6 7 7 8 8 8 8 8 8 9 9 9 8 8 8 8 8 8 8 8 9 9 9 8 8 8 8 9 8 8 8 9 9 9 9 9 9 9 9
6 5 4 5 6 5 6 6 6 7 7 7 8 8 8 8 8 8 8 9 9 8 9 9 8 9 9 9 9 9 9 9 9 8 9 8 8 8 8 8 8 8 8 8 9 9 9 9 9
7 6 6 6 6 7 7 8 8 8 8 8 8 8 8 8 8 8 8 8 8 8 9 9 9 9 9 9 9 9 9 9 9 9 9 8 8 8 8 8 8 8 8 8 8 8 9 9 10
7 7 7 7 7 7 8 8 8 9 9 8 8 8 8 9 9 9 9 9 9 9 9 10 10 10 10 9 9 10 10 10 9 9 9 8 7 7 7 7 7 7 8 7 7 8 8 9 9
7 8 7 7 8 8 9 9 9 10 10 9 9 9 9 9 9 10 10 10 10 9 10 10 11 10 10 10 10 9 9 9 9 9 8 8 7 6 6 6 6 7 7 7 7 7 8 8 8
9 9 9 9 9 9 9 10 10 10 10 10 10 9 10 10 10 10 11 11 11 10 10 10 11 11 11 10 10 10 10 9 9 8 8 8 8 7 6 7 6 6 6 7 7 7 7 8 8
11 10 10 10 10 10 10 10 10 11 10 11 10 10 10 11 11 11 11 12 12 11 11 11 11 11 11 11 11 10 10 10 9 8 8 8 8 8 7 7 7 6 6 6 6 7 7 7 6
11 10 10 10 10 10 10 10 10 11 11 10 10 11 11 11 12 12 12 12 12 12 11 11 11 11 11 11 11 11 10 9 9 8 8 8 8 8 8 8 7 7 6 7 7 7 7 6 6
10 10 10 11 10 11 10 10 11 11 11 10 10 11 11 12 12 12 12 11 12 12 12 12 11 12 11 11 11 11 11 10 9 8 8 8 8 8 8 8 8 8 7 7 7 7 7 7 7
11 11 11 11 11 11 11 10 11 11 11 10 10 11 11 12 11 12 12 11 12 12 12 12 12 13 12 12 11 11 10 10 9 9 8 9 9 9 9 9 9 9 8 8 8 8 8 8 8
12 11 11 11 11 11 11 11 11 11 11 10 10 11 11 11 11 11 12 12 12 12 12 12 12 13 13 13 11 10 10 10 10 9 8 9 10 10 9 9 9 9 10 9 9 9 9 9 9
12 13 12 12 11 11 12 10 11 11 11 10 11 11 12 12 12 12 12 12 13 13 13 13 13 14 14 13 12 11 10 10 10 9 9 9 9 9 9 10 10 10 10 10 10 10 9 9 9
12 13 13 12 12 11 13 11 10 11 11 11 11 12 12 12 12 13 12 13 13 14 14 14 14 14 14 14 13 12 11 11 10 10 10 10 10 10 10 10 10 10 10 10 10 10 10 9 9
13 13 13 12 12 12 13 12 11 12 12 12 12 12 12 12 13 13 14 14 14 14 15 15 15 15 15 15 14 13 12 12 11 11 11 11 11 10 10 10 10 10 11 11 11 11 11 11 11
13 13 13 13 13 13 13 13 13 13 13 13 13 12 12 13 14 14 15 15 15 16 16 16 16 16 16 15 14 14 13 13 12 11 11 11 11 11 10 10 10 10 11 11 11 11 12 12 12
14 14 14 14 14 14 13 15 15 14 14 14 14 14 14 15 15 15 15 15 16 17 17 17 17 17 16 15 15 14 14 13 13 12 12 11 11 11 11 11 12 12 11 11 12 12 12 13 13
14 14 14 15 15 15 15 16 15 15 15 14 14 15 15 15 16 16 16 16 16 17 17 17 17 17 17 16 16 15 15 15 14 13 13 13 12 13 13 13 13 13 13 13 13 13 13 13 13
15 15 15 16 17 17 16 15 15 15 15 15 15 16 17 16 17 17 17 17 17 17 18 18 18 17 17 17 16 16 16 16 15 15 15 15 15 14 14 14 14 14 14 13 13 13 13 13 13
15 15 16 17 18 19 18 17 17 16 15 16 17 17 17 18 18 18 18 18 18 18 18 18 19 18 18 17 17 17 17 17 17 17 17 17 16 16 15 15 15 15 14 14 15 14 14 14 14
15 16 17 18 19 20 20 18 18 18 18 17 17 18 18 18 19 19 20 19 19 19 19 19 19 19 19 18 17 17 18 17 17 17 17 18 18 17 17 17 17 16 16 16 16 16 16 16 15
16 16 17 19 19 20 21 19 18 19 19 18 18 18 18 18 19 20 20 20 19 19 20 19 19 19 19 19 18 18 18 18 18 18 18 18 19 18 18 18 18 18 18 18 17 17 17 17 17
Wind_Direction
33 41 34 27 12 8 18 24 27 26 20 17 15 13 9 2 354 350 344 332 326 323 321 320 314 311 305 301 297 292 285 281 280 276 276 271 268 269 266 263 263 264 265 265 265 265 261 260 258
19 21 13 357 340 350 3 13 25 25 13 9 14 12 8 1 355 347 339 330 325 327 325 321 315 308 305 300 294 290 285 283 283 281 279 272 270 269 264 262 261 263 267 267 264 260 259 261 258
2 357 337 319 325 336 354 7 10 10 9 7 10 1 358 355 355 347 339 336 333 332 327 321 316 310 306 302 297 290 283 284 282 281 277 270 270 268 265 265 262 263 265 266 263 260 258 259 259
332 321 305 305 307 315 344 357 360 4 5 3 0 351 349 346 346 343 339 339 335 332 326 321 317 311 305 301 297 291 287 284 281 280 278 273 271 272 273 267 263 264 266 263 261 259 258 260 262
320 308 300 308 301 306 337 349 357 1 2 356 353 351 347 342 341 342 339 338 336 332 327 322 318 313 307 302 295 293 289 286 284 280 280 280 279 278 274 269 266 266 266 261 262 260 260 262 260
308 301 302 306 317 325 334 346 350 353 353 347 344 345 342 341 342 343 337 334 330 329 328 324 320 318 313 306 297 294 291 288 286 283 281 283 283 280 276 269 267 266 265 263 265 266 265 262 260
309 301 302 309 331 343 345 337 336 341 345 343 341 339 337 337 339 339 334 330 327 326 324 322 318 316 314 308 303 297 291 290 290 289 283 281 283 282 277 269 264 262 262 263 266 267 266 261 261
307 303 307 313 331 343 343 345 340 337 341 341 337 336 336 335 338 338 334 331 327 326 323 321 319 317 315 311 308 303 300 293 291 291 288 284 283 281 278 267 263 262 263 264 266 266 264 260 261
300 300 314 322 325 334 334 338 336 331 330 334 333 331 332 329 332 335 334 331 329 328 326 323 320 316 313 309 308 304 300 297 296 294 291 289 286 282 277 270 263 262 264 265 267 265 261 260 261
299 308 317 321 325 329 330 324 324 324 328 330 329 327 326 325 329 331 331 329 329 329 327 325 324 320 313 310 307 304 297 295 296 294 293 289 286 283 276 272 269 264 264 265 265 263 261 259 260
299 302 304 310 316 318 320 318 320 323 326 328 327 328 328 329 330 327 326 324 325 327 329 330 327 321 314 312 307 304 300 296 295 295 295 289 285 281 277 273 272 267 267 268 265 262 261 259 261
293 295 301 307 312 316 317 318 319 323 324 322 323 325 329 329 329 325 322 320 321 323 325 328 326 320 315 312 309 306 304 300 294 288 295 292 284 279 279 278 274 271 269 271 268 265 262 259 259
291 295 300 305 308 313 312 311 314 315 318 318 319 319 320 322 323 319 319 317 318 320 323 323 322 321 316 311 309 307 304 300 297 291 290 292 287 281 282 283 276 278 272 271 268 262 263 261 255
288 289 291 296 299 305 307 310 311 312 316 316 315 314 312 314 317 317 319 317 318 318 319 318 318 319 316 313 310 308 307 302 296 291 289 289 289 282 283 285 281 277 274 269 266 266 261 257 253
281 282 287 290 294 300 302 305 307 308 311 311 311 309 308 308 312 315 317 318 317 319 319 316 317 317 316 312 310 309 307 302 295 290 285 284 285 286 281 280 279 275 273 272 268 269 268 260 261
280 279 281 285 288 296 302 304 304 306 308 308 309 306 302 302 306 310 311 316 316 317 316 314 316 317 315 311 307 306 305 300 295 287 280 278 279 281 282 278 278 277 272 271 266 264 268 265 260
284 280 279 281 286 291 295 301 303 303 306 306 306 304 300 300 304 307 309 312 315 317 317 315 315 315 313 311 308 304 303 298 292 287 285 282 280 278 280 280 275 274 274 274 271 265 266 264 262
287 284 284 283 285 287 293 297 300 301 303 304 305 303 303 303 304 306 308 307 310 312 314 315 316 315 314 312 310 305 302 295 289 287 284 282 280 276 276 275 272 273 277 273 273 267 263 261 261
291 290 288 289 291 290 294 297 297 297 299 301 305 304 302 302 304 305 304 304 306 307 309 310 312 314 314 310 306 304 302 296 289 289 287 283 280 274 272 273 270 271 273 273 269 265 265 265 261
291 290 288 290 296 296 298 297 296 294 296 300 304 305 303 302 302 303 302 301 303 304 307 307 307 310 311 307 303 300 299 297 292 289 291 288 281 276 270 269 268 268 269 275 270 264 265 267 264
288 290 289 291 293 291 294 294 298 302 302 303 303 304 305 304 303 302 301 298 299 302 304 303 303 304 306 305 301 297 296 295 292 287 289 288 284 280 276 272 270 269 269 270 269 264 260 261 263
284 286 286 286 286 289 290 292 295 303 304 304 302 301 301 299 299 298 299 298 299 300 301 299 298 298 298 298 299 297 293 289 288 286 286 285 282 278 275 274 271 270 269 268 266 262 260 259 260
282 283 285 283 283 286 287 290 295 300 302 302 303 302 298 297 297 298 298 297 298 299 299 299 298 296 295 295 295 292 289 288 286 285 286 285 283 279 274 274 272 270 270 269 264 260 258 255 259
279 280 280 280 281 285 288 290 292 297 299 300 300 299 298 299 298 299 297 294 294 295 296 296 297 297 294 291 291 289 287 285 283 282 282 280 279 277 273 272 271 266 266 267 262 258 257 255 256
276 276 276 277 280 285 287 287 291 297 299 298 298 297 297 298 297 297 297 295 293 292 293 291 293 294 294 291 289 288 285 285 283 280 279 276 274 273 272 271 268 265 263 265 265 261 257 256 256
275 275 276 278 280 283 285 285 289 293 293 294 295 295 295 294 295 295 297 294 292 290 290 291 291 290 289 290 289 285 282 282 280 277 277 274 273 271 271 273 272 268 266 266 268 263 259 257 256
274 273 276 279 283 285 285 285 288 291 293 292 294 291 290 291 293 295 296 294 291 289 288 287 289 289 289 289 288 285 280 278 275 274 275 274 274 272 271 271 270 269 267 267 268 266 262 259 256
273 272 273 277 282 286 287 287 290 293 292 291 288 287 286 287 290 293 294 293 291 289 289 288 288 287 286 287 286 285 282 278 276 275 274 273 273 272 271 269 266 266 266 265 265 265 263 260 259
272 271 274 278 282 285 288 288 291 292 292 290 288 287 288 288 290 292 291 291 290 288 289 290 287 285 283 284 283 282 281 278 276 276 275 274 272 269 268 267 264 263 264 264 265 264 263 263 261
273 276 276 277 281 283 286 288 289 290 291 290 287 287 289 291 290 289 289 290 291 291 290 291 288 284 282 281 281 281 280 278 276 275 274 273 271 268 268 267 264 263 263 264 265 264 262 262 259
Height
5891 5891 5891 5891 5891 5890 5889 5888 5887 5886 5885 5884 5883 5883 5882 5881 5882 5883 5880 5877 5877 5876 5875 5874 5873 5872 5872 5872 5871 5871 5870 5870 5870 5869 5869 5869 5869 5869 5868 5868 5868 5868 5868 5868 5868 5868 5868 5868 5868
5891 5891 5892 5891 5890 5889 5889 5888 5886 5886 5885 5884 5883 5882 5881 5881 5880 5880 5878 5877 5876 5875 5874 5873 5872 5871 5871 5870 5870 5870 5869 5869 5869 5868 5868 5867 5867 5867 5867 5867 5867 5867 5866 5866 5866 5866 5866 5866 5866
5891 5891 5892 5891 5889 5889 5888 5887 5886 5885 5885 5884 5883 5882 5881 5880 5880 5878 5877 5876 5875 5874 5873 5872 5871 5870 5870 5869 5869 5868 5868 5867 5867 5867 5866 5866 5866 5865 5865 5865 5865 5865 5865 5865 5864 5864 5864 5864 5864
5891 5892 5891 5890 5889 5888 5887 5886 5885 5885 5884 5883 5882 5881 5880 5880 5879 5878 5876 5875 5874 5873 5872 5871 5870 5869 5868 5868 5867 5867 5866 5866 5865 5865 5865 5864 5864 5863 5863 5863 5863 5863 5863 5863 5863 5863 5863 5863 5862
5891 5891 5890 5889 5888 5887 5886 5885 5885 5884 5883 5882 5882 5881 5880 5879 5878 5877 5875 5874 5873 5872 5871 5870 5869 5868 5867 5866 5865 5865 5864 5864 5864 5863 5863 5862 5862 5861 5861 5861 5861 5861 5861 5861 5861 5861 5861 5861 5861
5891 5890 5890 5888 5887 5886 5885 5885 5884 5883 5883 5882 5881 5880 5879 5878 5877 5876 5875 5873 5872 5871 5870 5869 5867 5866 5865 5864 5864 5863 5863 5862 5862 5861 5861 5860 5860 5859 5859 5859 5859 5859 5859 5859 5859 5859 5858 5858 5858
5891 5890 5888 5888 5887 5886 5885 5884 5883 5883 5882 5881 5880 5879 5878 5877 5876 5875 5874 5872 5871 5870 5869 5868 5866 5865 5864 5863 5862 5862 5861 5860 5860 5859 5859 5858 5858 5857 5857 5857 5857 5857 5857 5857 5857 5857 5856 5856 5856
5889 5889 5887 5887 5886 5885 5884 5883 5883 5882 5882 5881 5880 5878 5877 5876 5875 5874 5873 5871 5870 5869 5868 5866 5865 5864 5863 5862 5861 5860 5859 5858 5858 5857 5857 5856 5856 5855 5855 5855 5855 5855 5855 5855 5855 5854 5854 5854 5854
5888 5889 5887 5886 5885 5885 5884 5883 5882 5881 5881 5880 5878 5878 5876 5875 5874 5873 5871 5870 5869 5868 5867 5865 5864 5863 5861 5860 5859 5858 5858 5857 5856 5855 5855 5854 5854 5853 5853 5853 5852 5853 5852 5852 5852 5852 5852 5852 5852
5887 5887 5886 5885 5885 5884 5883 5882 5881 5881 5879 5878 5877 5876 5875 5874 5872 5871 5870 5869 5868 5867 5865 5864 5863 5861 5860 5859 5858 5857 5856 5855 5854 5854 5853 5852 5852 5851 5851 5851 5850 5850 5850 5850 5850 5850 5850 5849 5849
5886 5886 5885 5884 5883 5882 5882 5881 5880 5879 5878 5877 5876 5875 5873 5872 5871 5870 5869 5867 5866 5865 5864 5862 5861 5860 5858 5857 5856 5855 5854 5853 5852 5852 5851 5850 5850 5849 5849 5848 5848 5848 5848 5848 5848 5848 5848 5847 5847
5885 5884 5883 5883 5882 5881 5880 5879 5879 5878 5877 5876 5875 5873 5872 5871 5870 5869 5867 5866 5865 5863 5862 5861 5859 5858 5857 5855 5854 5853 5852 5851 5850 5850 5849 5848 5848 5847 5847 5847 5846 5846 5846 5846 5846 5845 5845 5845 5845
5884 5883 5882 5881 5880 5879 5879 5878 5877 5876 5875 5874 5873 5872 5871 5869 5868 5867 5865 5864 5863 5862 5860 5859 5857 5856 5855 5853 5852 5851 5850 5849 5848 5847 5847 5847 5846 5845 5845 5845 5845 5844 5844 5844 5844 5843 5843 5843 5843
5882 5881 5880 5880 5879 5878 5877 5876 5875 5874 5873 5872 5871 5870 5869 5868 5866 5865 5864 5862 5861 5860 5858 5857 5856 5854 5853 5851 5850 5849 5848 5847 5846 5845 5845 5845 5844 5844 5843 5843 5843 5842 5842 5842 5842 5841 5841 5841 5840
5880 5879 5879 5878 5877 5876 5875 5874 5873 5872 5871 5870 5869 5868 5867 5865 5864 5863 5862 5860 5859 5858 5856 5855 5854 5852 5851 5849 5848 5846 5845 5844 5844 5843 5843 5843 5842 5842 5841 5841 5841 5841 5840 5840 5840 5840 5839 5839 5839
5877 5877 5876 5876 5874 5873 5874 5872 5871 5869 5869 5867 5866 5866 5864 5863 5862 5861 5860 5858 5857 5855 5854 5853 5852 5850 5848 5847 5846 5844 5843 5842 5841 5841 5840 5840 5840 5840 5839 5839 5839 5839 5838 5838 5838 5838 5837 5837 5837
5874 5874 5873 5873 5871 5870 5870 5869 5868 5867 5866 5865 5864 5863 5862 5860 5859 5858 5857 5856 5855 5853 5852 5851 5849 5848 5846 5845 5843 5842 5841 5840 5839 5838 5838 5837 5837 5837 5837 5837 5837 5837 5837 5836 5836 5836 5836 5835 5835
5872 5871 5870 5869 5868 5867 5866 5866 5865 5864 5863 5862 5861 5860 5859 5858 5856 5855 5855 5853 5852 5851 5850 5848 5847 5845 5844 5842 5841 5840 5838 5837 5837 5836 5835 5835 5835 5835 5834 5835 5835 5835 5835 5835 5834 5834 5834 5834 5834
5868 5867 5866 5866 5865 5864 5863 5862 5862 5861 5860 5859 5858 5857 5856 5855 5854 5853 5852 5851 5850 5849 5847 5846 5844 5843 5841 5840 5838 5837 5836 5835 5834 5834 5833 5833 5832 5832 5832 5832 5832 5832 5832 5832 5832 5832 5831 5831 5831
5865 5864 5863 5862 5861 5860 5860 5859 5858 5857 5857 5856 5855 5854 5853 5852 5851 5850 5849 5848 5847 5846 5845 5843 5842 5840 5839 5837 5836 5835 5833 5832 5831 5831 5831 5830 5830 5830 5829 5829 5829 5829 5829 5829 5829 5829 5829 5829 5829
5862 5861 5860 5859 5859 5858 5857 5857 5855 5854 5854 5853 5852 5851 5850 5849 5848 5847 5846 5845 5844 5843 5841 5840 5839 5837 5836 5834 5833 5832 5831 5830 5829 5828 5828 5827 5827 5827 5826 5826 5826 5826 5826 5826 5826 5826 5826 5827 5827
5859 5858 5857 5856 5855 5855 5854 5853 5853 5851 5851 5850 5849 5848 5847 5846 5845 5844 5843 5842 5840 5839 5838 5836 5835 5834 5833 5831 5830 5829 5828 5827 5826 5825 5825 5824 5824 5823 5823 5823 5823 5823 5823 5823 5823 5823 5823 5824 5824
5855 5854 5853 5852 5852 5852 5850 5849 5849 5847 5847 5846 5846 5845 5843 5842 5841 5840 5839 5838 5837 5835 5834 5833 5832 5830 5829 5828 5827 5826 5825 5824 5823 5822 5821 5821 5820 5820 5820 5820 5820 5819 5819 5819 5820 5820 5820 5821 5821
5851 5851 5850 5849 5848 5848 5847 5846 5845 5844 5843 5842 5841 5841 5840 5839 5838 5837 5835 5834 5833 5831 5830 5829 5828 5826 5825 5824 5823 5822 5821 5820 5819 5819 5818 5817 5817 5816 5816 5816 5816 5816 5816 5816 5816 5816 5817 5817 5818
5847 5847 5847 5845 5845 5845 5843 5842 5842 5841 5839 5838 5837 5837 5836 5835 5834 5832 5830 5829 5828 5827 5826 5825 5824 5822 5821 5820 5819 5818 5818 5816 5816 5815 5814 5814 5814 5813 5813 5813 5813 5813 5813 5813 5813 5813 5813 5814 5814
5843 5843 5843 5842 5841 5840 5839 5837 5838 5837 5835 5834 5833 5832 5831 5830 5829 5828 5826 5824 5823 5822 5821 5820 5819 5818 5817 5816 5815 5814 5813 5812 5812 5811 5811 5810 5810 5810 5809 5809 5809 5809 5809 5809 5809 5809 5809 5810 5810
5839 5839 5839 5838 5836 5835 5835 5834 5833 5832 5831 5830 5829 5827 5826 5826 5824 5823 5822 5820 5819 5818 5817 5816 5815 5814 5813 5812 5811 5810 5809 5808 5807 5807 5806 5806 5806 5805 5805 5805 5805 5805 5805 5805 5805 5805 5805 5806 5806
5836 5835 5834 5833 5832 5831 5830 5830 5830 5828 5827 5826 5824 5823 5822 5821 5820 5819 5817 5816 5814 5813 5812 5811 5810 5809 5808 5807 5806 5805 5804 5803 5803 5802 5802 5801 5801 5800 5800 5801 5801 5801 5801 5801 5801 5801 5801 5801 5802
5832 5831 5829 5828 5828 5827 5825 5828 5825 5823 5822 5821 5820 5818 5817 5816 5815 5814 5812 5811 5809 5808 5807 5806 5805 5803 5802 5801 5801 5800 5799 5798 5798 5797 5797 5796 5796 5795 5795 5795 5795 5796 5796 5796 5796 5796 5797 5797 5797
5827 5826 5825 5824 5823 5821 5820 5823 5820 5818 5817 5815 5814 5813 5812 5811 5810 5808 5807 5806 5804 5803 5802 5800 5799 5798 5797 5796 5795 5795 5794 5793 5793 5792 5791 5791 5790 5790 5790 5790 5790 5790 5790 5791 5791 5791 5791 5792 5792